CAPE
4 0 0 0 0 0 0 0 0 0 0 0 0 0 0 0 0 0 0 0 0 0 0 0 0 0 0 0 0 0 0 0 0 0 0 0 0 0 0 0 0 0 0 0 0
15 0 0 0 0 0 0 0 0 0 0 0 0 0 0 0 0 0 0 0 0 0 0 0 0 0 0 0 0 0 0 0 0 0 0 0 0 0 0 0 0 0 0 0 0
0 0 0 0 0 0 0 0 0 0 0 0 0 0 0 0 0 0 0 0 0 0 0 0 0 0 0 0 0 0 0 0 0 0 0 0 0 0 0 0 0 0 0 0 0
0 0 0 0 0 0 0 0 0 0 0 0 0 0 0 0 0 0 0 0 0 0 0 0 0 0 0 0 0 0 0 0 0 0 0 0 0 0 0 0 0 0 0 0 0
0 0 0 0 0 0 0 0 0 0 0 0 0 0 0 0 0 0 0 0 0 0 0 0 0 0 0 0 0 0 0 0 0 0 0 0 0 0 0 0 0 0 0 0 0
0 0 0 0 0 0 0 0 0 0 0 0 0 0 0 0 0 0 0 0 0 0 0 0 0 0 0 0 0 0 0 0 0 0 0 0 0 0 0 0 0 0 0 0 0
0 0 0 0 0 0 0 0 0 0 0 0 0 0 0 0 0 0 0 0 0 0 0 0 0 0 0 0 0 0 0 0 0 0 0 0 0 0 0 0 0 0 0 0 0
0 0 0 0 0 0 0 0 0 0 0 0 0 0 0 0 0 0 0 0 0 0 0 0 0 0 0 0 0 0 0 0 0 0 0 0 0 0 0 0 0 0 0 0 0
0 0 0 0 0 0 0 0 0 0 0 0 0 0 0 0 0 0 0 0 0 0 0 0 0 0 0 0 0 0 0 0 0 0 0 0 0 0 0 0 0 0 0 0 0
0 0 0 0 0 0 0 0 0 0 0 0 0 0 0 0 0 0 0 0 0 0 0 0 0 0 0 0 0 0 0 0 0 0 0 0 0 0 0 0 0 0 0 0 0
0 0 0 0 0 0 0 0 0 0 0 0 0 0 0 0 0 0 0 0 0 0 0 0 0 0 0 0 0 0 0 0 0 0 0 0 0 0 0 0 0 0 0 0 0
0 0 0 0 0 0 0 0 0 0 0 0 0 0 0 0 0 0 0 0 0 0 0 0 0 0 0 0 0 0 0 0 0 0 0 0 0 0 0 0 0 0 0 0 0
0 0 0 0 0 0 0 0 0 0 0 0 0 0 0 0 0 0 0 0 0 0 0 0 0 0 0 0 0 0 0 0 0 0 0 0 0 0 0 0 0 0 0 0 0
0 0 0 0 0 0 0 0 0 0 0 0 0 0 0 0 0 0 0 0 0 0 0 0 0 0 0 0 0 0 0 0 0 0 0 0 0 0 0 0 0 0 0 0 0
0 0 0 0 0 0 0 0 0 0 0 0 0 0 0 0 0 0 0 0 0 0 0 0 0 0 0 0 0 0 0 0 0 0 0 0 0 0 0 0 0 0 0 0 0
0 0 0 0 0 0 0 0 0 0 0 0 0 0 0 0 0 0 0 0 0 0 0 0 0 0 0 0 0 0 0 0 0 0 0 0 0 0 0 0 0 0 0 0 0
0 0 0 0 0 0 0 0 0 0 0 0 0 0 0 0 0 0 0 0 0 0 0 0 0 0 0 0 0 0 0 0 0 0 0 0 0 0 0 0 0 0 0 0 0
0 0 0 0 0 0 0 0 0 0 0 0 0 0 0 0 0 0 0 0 0 0 0 0 0 0 0 0 0 0 0 0 0 0 0 0 0 0 0 0 0 0 0 0 0
0 0 0 0 0 0 0 0 0 0 0 0 0 0 0 0 0 0 0 0 0 0 0 0 0 0 0 0 0 0 0 0 0 0 0 0 0 0 0 0 0 0 0 0 0
0 0 0 0 0 0 0 0 0 0 0 0 0 0 0 0 0 0 0 0 0 0 0 0 0 0 0 0 0 0 0 0 0 0 0 0 0 0 0 0 0 0 0 0 0
0 0 0 0 0 0 0 0 0 0 0 0 0 0 0 0 0 0 0 0 0 0 0 0 0 0 0 0 0 0 0 0 0 0 0 0 0 0 0 0 0 0 0 0 0
0 0 0 0 0 0 0 0 0 0 0 0 0 0 0 0 0 0 0 2 0 0 0 0 0 0 0 0 0 0 0 0 0 0 0 0 0 0 0 0 0 0 0 0 0
0 0 0 0 0 0 0 0 0 0 8 0 0 0 0 0 0 0 0 0 0 0 0 0 0 0 0 0 0 0 0 0 0 0 0 0 0 0 0 0 0 0 0 0 0
0 0 0 0 0 0 0 0 0 0 0 5 3 5 21 11 0 0 0 0 0 0 0 0 0 0 0 0 0 0 0 0 0 0 0 0 0 0 0 0 0 0 0 0 0
0 0 0 0 0 0 0 0 0 0 0 0 0 2 11 6 7 6 1 0 0 0 0 0 0 0 0 0 0 1 0 0 0 0 0 0 0 0 0 0 0 0 0 0 0
0 0 0 0 0 0 0 0 0 0 0 0 1 18 0 2 41 26 8 11 12 0 1 0 0 0 0 0 0 0 0 0 0 0 0 0 0 0 0 0 0 0 0 0 0
1 2 1 1 0 0 0 0 0 0 0 0 0 0 16 31 35 20 14 0 0 0 0 1 1 3 0 0 0 0 0 0 0 0 0 0 0 0 0 0 0 0 0 0 0
CIN
-11 -0 -0 -0 -0 -0 -0 -0 -0 -0 -0 -0 -0 -0 -0 -0 -0 -0 -0 -0 -0 -0 -0 -0 -0 -0 -0 -0 -0 -0 -0 -0 -0 -0 -0 -0 -0 -0 -0 -0 -0 -0 -0 -0 -0
-0 -0 -0 -0 -0 -0 -0 -0 -0 -0 -0 -0 -0 -0 -0 -0 -0 -0 -0 -0 -0 -0 -0 -0 -0 -0 -0 -0 -0 -0 -0 -0 -0 -0 -0 -0 -0 -0 -0 -0 -0 -0 -0 -0 -0
-0 -0 -0 -0 -0 -0 -0 -0 -0 -0 -0 -0 -0 -0 -0 -0 -0 -0 -0 -0 -0 -0 -0 -0 -0 -0 -0 -0 -0 -0 -0 -0 -0 -0 -0 -0 -0 -0 -0 -0 -0 -0 -0 -0 -0
-0 -0 -0 -0 -0 -0 -0 -0 -0 -0 -0 -0 -0 -0 -0 -0 -0 -0 -0 -0 -0 -0 -0 -0 -0 -0 -0 -0 -0 -0 -0 -0 -0 -0 -0 -0 -0 -0 -0 -0 -0 -0 -0 -0 -0
-0 -0 -0 -0 -0 -0 -0 -0 -0 -0 -0 -0 -0 -0 -0 -0 -0 -0 -0 -0 -0 -0 -0 -0 -0 -0 -0 -0 -0 -0 -0 -0 -0 -0 -0 -0 -0 -0 -0 -0 -0 -0 -0 -0 -0
-0 -0 -0 -0 -0 -0 -0 -0 -0 -0 -0 -0 -0 -0 -0 -0 -0 -0 -0 -0 -0 -0 -0 -0 -0 -0 -0 -0 -0 -0 -0 -0 -0 -0 -0 -0 -0 -0 -0 -0 -0 -0 -0 -0 -0
-0 -0 -0 -0 -0 -0 -0 -0 -0 -0 -0 -0 -0 -0 -0 -0 -0 -0 -0 -0 -0 -0 -0 -0 -0 -0 -0 -0 -0 -0 -0 -0 -0 -0 -0 -0 -0 -0 -0 -0 -0 -0 -0 -0 -0
-0 -0 -0 -0 -0 -0 -0 -0 -0 -0 -0 -0 -0 -0 -0 -0 -0 -0 -0 -0 -0 -0 -0 -0 -0 -0 -0 -0 -0 -0 -0 -0 -0 -0 -0 -0 -0 -0 -0 -0 -0 -0 -0 -0 -0
-0 -0 -0 -0 -0 -0 -0 -0 -0 -0 -0 -0 -0 -0 -0 -0 -0 -0 -0 -0 -0 -0 -0 -0 -0 -0 -0 -0 -0 -0 -0 -0 -0 -0 -0 -0 -0 -0 -0 -0 -0 -0 -0 -0 -0
-0 -0 -0 -0 -0 -0 -0 -0 -0 -0 -0 -0 -0 -0 -0 -0 -0 -0 -0 -0 -0 -0 -0 -0 -0 -0 -0 -0 -0 -0 -0 -0 -0 -0 -0 -0 -0 -0 -0 -0 -0 -0 -0 -0 -0
-0 -0 -0 -0 -0 -0 -0 -0 -0 -0 -0 -0 -0 -0 -0 -0 -0 -0 -0 -0 -0 -0 -0 -0 -0 -0 -0 -0 -0 -0 -0 -0 -0 -0 -0 -0 -0 -0 -0 -0 -0 -0 -0 -0 -0
-0 -0 -0 -0 -0 -0 -0 -0 -0 -0 -0 -0 -0 -0 -0 -0 -0 -0 -0 -0 -0 -0 -0 -0 -0 -0 -0 -0 -0 -0 -0 -0 -0 -0 -0 -0 -0 -0 -0 -0 -0 -0 -0 -0 -0
-0 -0 -0 -0 -0 -0 -0 -0 -0 -0 -0 -0 -0 -0 -0 -0 -0 -0 -0 -0 -0 -0 -0 -0 -0 -0 -0 -0 -0 -0 -0 -0 -0 -0 -0 -0 -0 -0 -0 -0 -0 -0 -0 -0 -0
-0 -0 -0 -0 -0 -0 -0 -0 -0 -0 -0 -0 -0 -0 -0 -0 -0 -0 -0 -0 -0 -0 -0 -0 -0 -0 -0 -0 -0 -0 -0 -0 -0 -0 -0 -0 -0 -0 -0 -0 -0 -0 -0 -0 -0
-0 -0 -0 -0 -0 -0 -0 -0 -0 -0 -0 -0 -0 -0 -0 -0 -0 -0 -0 -0 -0 -0 -0 -0 -0 -0 -0 -0 -0 -0 -0 -0 -0 -0 -0 -0 -0 -0 -0 -0 -0 -0 -0 -0 -0
-0 -0 -0 -0 -0 -0 -0 -0 -0 -0 -0 -0 -0 -0 -0 -0 -0 -0 -0 -0 -0 -0 -0 -0 -0 -0 -0 -0 -0 -0 -0 -0 -0 -0 -0 -0 -0 -0 -0 -0 -0 -0 -0 -0 -0
-0 -0 -0 -0 -0 -0 -0 -0 -0 -0 -0 -0 -0 -0 -0 -0 -0 -0 -0 -0 -0 -0 -0 -0 -0 -0 -0 -0 -0 -0 -0 -0 -0 -0 -0 -0 -0 -0 -0 -0 -0 -0 -0 -0 -0
-0 -0 -0 -0 -0 -0 -0 -0 -0 -0 -0 -0 -0 -0 -0 -0 -0 -0 -0 -0 -0 -0 -0 -0 -0 -0 -0 -0 -0 -0 -0 -0 -0 -0 -0 -0 -0 -0 -0 -0 -0 -0 -0 -0 -0
-0 -0 -0 -0 -0 -0 -0 -0 -0 -0 -0 -0 -0 -0 -0 -0 -0 -0 -0 -0 -0 -0 -0 -0 -0 -0 -0 -0 -0 -0 -0 -0 -0 -0 -0 -0 -0 -0 -0 -0 -0 -0 -0 -0 -0
-0 -0 -0 -0 -0 -0 -0 -0 -0 -0 -0 -0 -0 -0 -0 -0 -0 -0 -0 -0 -0 -0 -0 -0 -0 -0 -0 -0 -0 -0 -0 -0 -0 -0 -0 -0 -0 -0 -0 -0 -0 -0 -0 -0 -0
-0 -0 -0 -0 -0 -0 -0 -0 -0 -0 -0 -0 -0 -0 -0 -0 -0 -0 -0 -0 -0 -0 -0 -0 -0 -0 -0 -0 -0 -0 -0 -0 -0 -0 -0 -0 -0 -0 -0 -0 -0 -0 -0 -0 -0
-0 -0 -0 -0 -0 -0 -0 -0 -0 -0 -0 -0 -0 -0 -0 -0 -0 -0 -0 -4 -0 -0 -0 -0 -0 -0 -0 -0 -0 -0 -0 -0 -0 -0 -0 -0 -0 -0 -0 -0 -0 -0 -0 -0 -0
-0 -0 -0 -0 -0 -0 -0 -0 -0 -0 -2 -0 -0 -0 -0 -0 -0 -0 -0 -0 -0 -2 -0 -0 -0 -0 -0 -0 -0 -0 -0 -0 -0 -0 -0 -0 -0 -0 -0 -0 -0 -0 -0 -0 -0
-0 -0 -0 -0 -0 -0 -0 -0 -0 -0 -0 -36 -33 -10 -4 -5 -4 -0 -0 -0 -0 -0 -0 -2 -0 -0 -0 -0 -0 -0 -0 -0 -0 -0 -0 -0 -0 -0 -0 -0 -0 -0 -0 -0 -0
-0 -0 -0 -0 -0 -0 -0 -0 -0 -0 -0 -0 -0 -22 -12 -3 -3 -26 -2 -0 -0 -0 -0 -0 -0 -0 -0 -0 -0 -1 -0 -0 -0 -0 -0 -0 -0 -0 -0 -0 -0 -0 -0 -0 -0
-0 -0 -0 -0 -0 -0 -0 -0 -0 -0 -0 -0 -1 -4 -0 -2 -1 -0 -0 -0 -0 -0 -0 -0 -0 -0 -0 -0 -0 -0 -0 -0 -0 -0 -0 -0 -0 -0 -0 -0 -0 -0 -0 -0 -0
-1 -3 -1 -0 -0 -0 -0 -0 -0 -0 -0 -0 -0 -0 -5 -2 -8 -12 -3 -0 -0 -0 -0 -0 -0 -0 -0 -0 -0 -0 -0 -0 -0 -0 -0 -0 -0 -0 -0 -0 -0 -0 -0 -0 -0
Wind_Speed
14 14 14 16 17 18 18 18 19 19 19 19 19 19 19 19 20 21 19 17 19 20 19 20 20 19 20 18 18 18 20 23 22 18 11 6 10 10 13 8 10 11 10 7 7
7 11 12 15 16 16 17 17 18 18 19 18 19 19 20 20 22 23 18 18 20 20 18 18 17 17 18 18 18 18 20 21 19 14 10 6 6 8 8 7 8 7 8 7 7
10 12 13 13 15 15 15 16 16 17 18 18 19 19 20 20 22 18 18 19 20 20 22 20 19 20 20 19 18 17 19 19 19 16 15 8 9 7 7 7 3 1 3 6 7
12 12 12 13 14 13 14 15 16 17 18 19 19 20 21 21 21 17 18 20 20 20 20 19 19 19 20 20 17 21 21 21 18 18 15 8 9 12 9 12 6 2 3 5 5
13 13 13 13 12 13 13 15 16 17 18 19 19 19 19 22 19 16 19 21 21 19 20 20 21 21 21 19 18 21 18 19 17 17 17 11 12 12 10 9 9 7 8 7 7
13 13 13 12 12 12 14 15 16 18 19 19 19 20 20 25 18 18 18 19 19 20 18 19 20 20 23 19 20 19 16 18 17 15 15 12 13 12 8 7 8 8 7 9 9
13 12 12 12 12 13 14 16 17 19 19 19 19 20 23 22 18 19 18 19 18 20 20 18 20 19 17 19 21 18 17 18 15 13 16 14 16 14 10 5 6 7 8 9 11
12 12 12 12 13 14 15 17 18 19 20 20 20 20 23 17 20 18 18 17 17 17 19 18 17 20 18 16 18 18 19 23 14 11 16 12 21 9 6 6 7 8 9 10 11
12 12 12 12 13 14 16 17 19 20 20 21 20 16 21 16 18 16 17 19 16 16 17 15 16 18 18 17 18 19 25 18 17 10 15 12 24 20 5 8 9 10 11 11 11
11 12 13 13 14 14 16 18 19 20 21 19 23 21 16 18 13 15 14 17 16 15 16 16 17 19 17 17 22 22 18 25 26 14 14 16 18 18 11 12 11 13 13 14 12
10 11 13 13 14 15 16 17 17 14 7 8 14 19 15 14 13 14 11 13 16 16 18 15 20 21 19 17 22 27 30 30 25 16 17 20 23 20 16 16 16 15 16 16 13
8 10 11 13 14 16 15 16 17 19 25 9 6 12 15 11 17 13 8 14 14 18 18 17 25 23 23 22 22 28 31 32 31 21 22 28 29 25 20 19 18 16 17 17 15
7 9 11 12 13 7 11 17 18 21 17 14 8 6 9 10 14 11 7 13 19 21 19 24 24 17 22 24 25 27 29 29 30 23 27 32 37 25 23 22 18 18 18 16 16
10 8 9 12 12 16 14 16 17 19 23 15 13 13 12 14 19 15 9 17 17 23 21 27 23 20 23 27 24 32 28 25 28 29 33 17 37 33 31 21 15 16 16 15 15
16 13 9 15 13 15 16 17 18 17 26 13 12 12 10 11 15 16 14 17 21 20 20 23 22 23 25 24 21 27 21 22 24 29 34 31 32 29 24 20 17 16 17 13 14
21 21 11 13 12 16 17 17 16 18 24 14 13 13 13 12 16 14 16 17 20 27 29 28 24 22 23 22 22 17 22 24 26 28 38 30 27 37 26 24 20 18 15 13 13
25 9 14 13 15 20 18 16 20 20 19 18 18 14 13 16 16 16 18 19 22 26 31 28 29 25 22 23 22 21 24 34 35 32 39 29 27 28 18 24 23 20 21 15 13
31 14 10 8 13 16 13 16 21 21 22 22 22 17 21 18 19 18 23 23 20 24 32 29 33 21 19 24 26 25 25 31 39 38 39 25 31 27 22 21 21 20 19 14 12
25 15 11 9 8 10 15 17 23 21 28 30 26 26 26 25 25 21 25 27 24 20 29 29 37 25 22 19 18 23 28 26 38 41 42 36 34 33 29 26 21 17 17 14 9
22 18 13 9 9 11 18 22 26 28 37 37 35 31 37 31 26 26 28 27 27 26 24 31 43 29 23 21 24 27 22 26 25 37 38 32 30 28 26 18 16 16 15 12 11
21 18 16 13 11 14 23 25 28 27 31 35 37 39 42 44 43 35 33 30 26 27 26 32 34 33 24 30 28 28 31 29 29 30 35 36 33 22 27 24 16 15 12 12 11
22 21 19 15 18 20 24 27 29 35 35 36 38 40 42 44 47 47 48 39 33 27 34 31 32 43 40 31 28 31 33 31 36 36 37 41 37 28 33 25 20 17 15 13 12
25 23 18 18 26 27 30 35 37 37 37 37 40 37 38 46 52 44 47 41 43 36 34 31 36 48 49 34 33 35 34 34 38 42 48 45 45 26 27 23 17 16 15 14 14
26 30 24 18 21 27 32 32 36 35 39 35 39 40 43 50 48 57 57 47 44 43 38 33 39 43 52 47 35 41 38 37 38 45 43 46 44 36 27 23 21 21 21 19 15
25 27 30 31 32 35 38 40 42 42 37 37 45 44 45 51 52 54 51 51 49 43 42 37 50 51 55 53 45 42 39 37 39 41 44 42 43 33 31 29 26 23 22 18 16
31 32 31 34 32 36 36 38 41 42 41 43 44 44 47 52 51 58 51 50 44 43 42 44 48 55 58 55 55 58 55 45 40 40 42 40 47 32 29 27 28 20 20 21 19
30 28 30 32 35 37 37 39 42 43 38 41 45 49 46 44 44 43 41 44 50 56 61 57 45 52 63 57 56 60 54 50 46 41 39 40 39 36 38 34 36 36 31 27 21
Wind_Direction
214 227 233 230 227 228 228 229 231 233 236 242 245 246 247 250 248 242 251 262 266 264 258 247 251 252 248 260 259 266 262 256 266 287 318 353 328 325 316 358 331 327 349 14 349
223 216 220 215 217 221 224 228 232 234 237 245 247 250 253 256 246 241 262 271 264 262 259 260 265 261 262 265 266 266 267 273 293 313 332 350 350 335 329 344 337 334 341 330 360
191 194 201 206 211 216 223 227 232 234 240 247 251 256 257 258 246 261 271 267 263 260 251 263 265 258 261 266 269 279 276 294 298 313 314 333 320 342 335 326 350 4 345 333 341
172 181 189 194 203 215 221 227 230 235 241 247 254 261 260 253 249 275 274 267 265 264 263 269 266 267 266 268 282 277 285 293 309 311 313 321 318 313 317 322 338 1 315 318 334
168 175 181 189 204 213 224 228 232 237 240 246 259 268 261 249 264 293 274 269 267 272 267 270 268 269 271 279 288 281 300 301 313 315 304 311 305 308 307 319 327 321 302 295 307
167 173 181 193 206 217 223 229 233 236 240 250 266 273 260 252 281 285 279 276 278 273 281 276 278 284 276 286 284 297 305 307 313 316 312 305 304 305 297 300 299 299 291 288 294
170 179 190 200 209 218 226 230 233 234 240 253 269 274 256 268 284 284 282 281 281 280 279 288 287 283 296 292 292 301 305 309 311 313 309 305 296 292 295 278 269 275 277 282 288
180 187 196 204 215 223 230 230 229 229 236 250 270 274 264 288 283 287 286 287 288 291 289 293 292 287 291 305 301 302 300 301 306 305 308 303 299 279 266 262 258 265 267 274 281
187 196 205 214 222 231 233 231 223 220 226 248 275 295 277 302 288 293 290 286 292 295 298 302 294 293 293 297 298 297 296 297 304 297 308 293 302 312 245 270 269 264 263 266 276
196 204 210 218 228 237 241 226 228 240 224 221 240 282 302 295 308 300 301 290 292 296 297 294 293 290 290 285 291 296 295 299 294 293 286 295 292 301 288 276 270 273 267 265 264
203 211 216 220 229 245 260 237 283 339 52 352 317 296 318 320 317 304 307 299 292 289 288 288 287 284 285 282 287 297 293 297 300 304 295 290 291 289 277 268 271 267 265 263 254
190 196 209 225 236 250 271 257 331 319 295 184 184 314 314 326 310 307 315 296 291 284 284 291 283 285 290 291 286 288 291 291 296 302 299 299 295 293 281 262 259 260 266 264 264
244 227 227 221 229 140 73 353 345 330 339 338 324 305 314 316 308 305 300 300 291 284 282 278 293 284 290 289 288 287 288 292 295 302 302 300 298 295 288 278 270 261 267 266 262
284 232 216 226 72 25 28 7 360 353 324 329 329 321 311 309 304 300 287 298 294 288 286 286 285 291 289 286 287 286 294 290 295 297 298 303 297 298 299 290 275 267 263 264 268
295 275 76 41 46 32 10 6 354 360 322 354 347 349 335 306 316 302 302 291 288 290 288 292 290 286 286 287 287 287 300 296 296 294 295 292 297 301 307 300 285 280 273 266 270
294 292 48 45 39 11 6 1 5 345 322 342 348 334 322 302 308 315 301 293 300 287 285 282 299 290 287 293 291 298 296 297 298 296 289 289 286 295 297 295 292 288 284 285 278
290 326 22 18 13 356 358 357 338 327 343 331 327 325 310 308 299 298 292 285 283 286 283 285 278 287 287 285 290 287 289 289 288 286 288 300 284 280 300 301 303 297 299 297 291
291 0 15 16 5 360 2 345 323 330 320 329 322 314 306 308 292 288 294 282 271 278 290 286 286 267 275 270 281 273 272 279 286 287 292 298 288 294 297 298 302 303 305 304 297
352 2 2 4 8 3 338 317 322 332 331 321 318 306 302 300 299 287 277 279 280 263 278 285 283 287 277 275 269 283 271 277 285 287 288 286 289 293 295 293 294 297 306 298 295
352 350 341 2 357 338 315 302 311 312 310 313 306 308 302 306 294 291 292 295 275 269 259 285 285 286 279 275 274 272 295 282 278 285 284 288 287 291 301 292 283 291 299 294 298
355 350 357 356 347 319 300 302 304 304 308 309 302 298 298 298 298 292 289 294 297 290 267 272 277 289 275 266 266 272 271 277 281 276 285 288 290 292 299 305 286 293 294 291 293
355 347 356 352 324 318 302 305 306 304 301 300 299 297 294 294 291 290 291 296 293 296 286 274 278 274 267 278 267 265 267 255 271 277 277 278 272 288 296 301 298 294 291 286 292
352 344 348 341 326 321 317 311 309 307 305 298 295 294 297 294 292 290 289 292 295 291 285 282 273 273 276 275 273 269 263 267 267 277 273 274 281 292 292 292 288 291 291 287 288
349 340 344 336 328 324 323 320 316 313 307 310 304 302 297 293 291 289 287 289 294 294 286 276 270 268 268 269 274 272 268 263 263 268 267 271 279 279 286 290 292 289 289 286 284
350 344 343 331 330 326 324 319 315 311 308 307 300 298 296 293 293 292 295 292 283 288 289 281 269 268 271 272 273 271 269 262 258 256 265 274 275 274 279 283 284 281 284 283 281
344 340 339 328 326 322 320 316 313 312 310 305 300 302 300 294 295 293 293 293 291 282 285 285 277 276 271 269 268 269 269 270 261 262 266 271 275 276 291 290 289 285 284 279 281
346 341 335 330 327 323 320 319 317 316 313 309 308 305 299 299 299 299 295 291 284 282 277 275 281 279 272 270 267 263 262 264 265 265 267 266 255 288 283 282 283 284 285 286 286